Location: Lake Almanor
(40.2485°N, 121.1442°W)
Time: 07:25:28
(UTC-08:00)

STARLINK-1110 - Pass Details

Date: 30 January 2020
Orbit: 348 x 351 km, 53.0° (Epoch: 18 February)

Event Time Altitude Azimuth Distance (km) Brightness Sun altitude
Rises 17:49:43 0° 319° (NW) 2,164 7.0 -6.1°
Reaches altitude 10° 17:52:13 10° 342° (NNW) 1,320 5.6 -6.5°
Maximum altitude 17:54:13 17° 25° (NNE) 1,006 4.6 -6.9°
Drops below altitude 10° 17:56:13 10° 68° (ENE) 1,317 4.9 -7.3°
Enters shadow 17:56:17 10° 68° (ENE) 1,334 4.9 -7.3°
